| time (UTC) | temp C | wind direction | speed KPH | gust KPH | rain 1hr cm | rain 24hr cm | rain mn cm | humidity % | barometer mb |
| 20260507052038 | 15 | 0.0 | 1.6 | 0.00 | 0.00 | 0.00 | 80 | 1020.7 | |
| 20260507051017 | 14 | 0.0 | 0.0 | 0.00 | 0.00 | 0.00 | 79 | 1020.8 | |
| 20260507050016 | 15 | 0.0 | 0.0 | 0.00 | 0.00 | 0.00 | 79 | 1020.8 | |
| 20260507045016 | 15 | 0.0 | 0.0 | 0.00 | 0.00 | 0.00 | 78 | 1020.9 | |
| 20260507044115 | 15 | 0.0 | 1.6 | 0.00 | 0.00 | 0.00 | 76 | 1020.7 | |
| 20260507043115 | 15 | 0.0 | 1.6 | 0.00 | 0.00 | 0.00 | 77 | 1020.6 | |
| 20260507042114 | 15 | 0.0 | 0.0 | 0.00 | 0.00 | 0.00 | 76 | 1020.7 | |
| 20260507041113 | 15 | 0.0 | 0.0 | 0.00 | 0.00 | 0.00 | 75 | 1020.7 | |
| 20260507040113 | 16 | 349 | 0.0 | 1.6 | 0.00 | 0.00 | 0.00 | 74 | 1020.5 |
| 20260507035112 | 16 | 0.0 | 3.2 | 0.00 | 0.00 | 0.00 | 73 | 1020.4 | |
| 20260507034111 | 16 | 306 | 0.0 | 3.2 | 0.00 | 0.00 | 0.00 | 72 | 1020.4 |
| 20260507033110 | 16 | 313 | 0.0 | 3.2 | 0.00 | 0.00 | 0.00 | 71 | 1020.3 |
| 20260507032110 | 16 | 334 | 0.0 | 3.2 | 0.00 | 0.00 | 0.00 | 71 | 1020.0 |
| 20260507031129 | 16 | 0.0 | 3.2 | 0.00 | 0.00 | 0.00 | 70 | 1020.0 | |
| 20260507030109 | 17 | 318 | 1.6 | 4.8 | 0.00 | 0.00 | 0.00 | 69 | 1019.9 |
| 20260507025108 | 17 | 356 | 1.6 | 3.2 | 0.00 | 0.00 | 0.00 | 68 | 1019.8 |
| 20260507024107 | 17 | 350 | 4.8 | 6.4 | 0.00 | 0.00 | 0.00 | 66 | 1019.7 |
| 20260507023147 | 18 | 300 | 1.6 | 4.8 | 0.00 | 0.00 | 0.00 | 64 | 1019.6 |
| 20260507022106 | 18 | 311 | 1.6 | 3.2 | 0.00 | 0.00 | 0.00 | 62 | 1019.6 |
| 20260507021105 | 18 | 315 | 4.8 | 6.4 | 0.00 | 0.00 | 0.00 | 62 | 1019.6 |
| 20260507020105 | 19 | 334 | 3.2 | 6.4 | 0.00 | 0.00 | 0.00 | 61 | 1019.5 |
| 20260507015105 | 19 | 316 | 3.2 | 8.0 | 0.00 | 0.00 | 0.00 | 60 | 1019.5 |
| 20260507014104 | 19 | 312 | 6.4 | 9.7 | 0.00 | 0.00 | 0.00 | 59 | 1019.4 |
| 20260507013103 | 19 | 272 | 4.8 | 6.4 | 0.00 | 0.00 | 0.00 | 59 | 1019.5 |
| 20260507012102 | 20 | 287 | 4.8 | 8.0 | 0.00 | 0.00 | 0.00 | 59 | 1019.5 |
| 20260507011102 | 20 | 327 | 6.4 | 9.7 | 0.00 | 0.00 | 0.00 | 59 | 1019.3 |
| 20260507010101 | 20 | 291 | 4.8 | 8.0 | 0.00 | 0.00 | 0.00 | 59 | 1019.3 |
| 20260507005101 | 20 | 322 | 6.4 | 11.3 | 0.00 | 0.00 | 0.00 | 58 | 1019.4 |
| 20260507004100 | 20 | 315 | 6.4 | 9.7 | 0.00 | 0.00 | 0.00 | 58 | 1019.4 |
| 20260507003059 | 21 | 314 | 8.0 | 11.3 | 0.00 | 0.00 | 0.00 | 57 | 1019.4 |
| 20260507002059 | 20 | 293 | 6.4 | 14.5 | 0.00 | 0.00 | 0.00 | 57 | 1019.4 |
| 20260507001058 | 20 | 332 | 6.4 | 14.5 | 0.00 | 0.00 | 0.00 | 57 | 1019.3 |
| 20260507000057 | 21 | 322 | 8.0 | 12.9 | 0.00 | 0.00 | 0.00 | 57 | 1019.2 |
| 20260506235057 | 21 | 297 | 6.4 | 11.3 | 0.00 | 0.00 | 0.00 | 56 | 1019.2 |
| 20260506234056 | 21 | 329 | 8.0 | 11.3 | 0.00 | 0.00 | 0.00 | 56 | 1019.2 |
| 20260506233117 | 21 | 310 | 8.0 | 11.3 | 0.00 | 0.00 | 0.00 | 57 | 1019.4 |
| 20260506232055 | 21 | 302 | 6.4 | 14.5 | 0.00 | 0.00 | 0.00 | 56 | 1019.3 |
| 20260506231054 | 21 | 310 | 8.0 | 12.9 | 0.00 | 0.00 | 0.00 | 57 | 1019.4 |
| 20260506230115 | 21 | 320 | 9.7 | 19.3 | 0.00 | 0.00 | 0.00 | 57 | 1019.5 |
| 20260506225053 | 21 | 316 | 8.0 | 12.9 | 0.00 | 0.00 | 0.00 | 56 | 1019.5 |
| 20260506224053 | 21 | 316 | 8.0 | 19.3 | 0.00 | 0.00 | 0.00 | 57 | 1019.5 |
| 20260506223052 | 21 | 300 | 4.8 | 8.0 | 0.00 | 0.00 | 0.00 | 55 | 1019.7 |
| 20260506222052 | 21 | 311 | 9.7 | 14.5 | 0.00 | 0.00 | 0.00 | 56 | 1019.8 |
| 20260506221052 | 22 | 319 | 6.4 | 11.3 | 0.00 | 0.00 | 0.00 | 56 | 1019.9 |
| 20260506220050 | 22 | 272 | 6.4 | 11.3 | 0.00 | 0.00 | 0.00 | 56 | 1020.0 |
| 20260506215050 | 22 | 324 | 6.4 | 17.7 | 0.00 | 0.00 | 0.00 | 57 | 1020.2 |
| 20260506214049 | 21 | 333 | 8.0 | 17.7 | 0.00 | 0.00 | 0.00 | 58 | 1020.2 |
| 20260506213049 | 22 | 324 | 9.7 | 16.1 | 0.00 | 0.00 | 0.00 | 57 | 1020.3 |
| 20260506205611 | 22 | 305 | 6.4 | 17.7 | 0.00 | 0.00 | 0.00 | 56 | 1020.5 |
| 20260506204610 | 22 | 312 | 8.0 | 16.1 | 0.00 | 0.00 | 0.00 | 58 | 1020.4 |
| 20260506203610 | 21 | 340 | 8.0 | 11.3 | 0.00 | 0.00 | 0.00 | 59 | 1020.6 |
| 20260506202609 | 22 | 319 | 4.8 | 14.5 | 0.00 | 0.00 | 0.00 | 56 | 1020.6 |
| 20260506201609 | 22 | 284 | 4.8 | 9.7 | 0.00 | 0.00 | 0.00 | 56 | 1020.8 |
| 20260506200608 | 22 | 290 | 3.2 | 6.4 | 0.00 | 0.00 | 0.00 | 54 | 1020.8 |
| 20260506195608 | 22 | 277 | 3.2 | 9.7 | 0.00 | 0.00 | 0.00 | 53 | 1020.7 |
| 20260506194607 | 22 | 310 | 4.8 | 8.0 | 0.00 | 0.00 | 0.00 | 53 | 1020.9 |
| 20260506193606 | 21 | 274 | 3.2 | 6.4 | 0.00 | 0.00 | 0.00 | 53 | 1021.0 |
| 20260506192605 | 22 | 277 | 3.2 | 4.8 | 0.00 | 0.00 | 0.00 | 53 | 1021.0 |
| 20260506191605 | 21 | 293 | 3.2 | 9.7 | 0.00 | 0.00 | 0.00 | 54 | 1021.1 |
| 20260506190604 | 21 | 321 | 4.8 | 6.4 | 0.00 | 0.00 | 0.00 | 53 | 1021.2 |
| 20260506185603 | 20 | 294 | 4.8 | 8.0 | 0.00 | 0.00 | 0.00 | 53 | 1021.3 |
| 20260506184603 | 21 | 1 | 6.4 | 12.9 | 0.00 | 0.00 | 0.00 | 53 | 1021.4 |
| 20260506183603 | 21 | 360 | 4.8 | 6.4 | 0.00 | 0.00 | 0.00 | 53 | 1021.3 |
| 20260506182623 | 21 | 22 | 4.8 | 12.9 | 0.00 | 0.00 | 0.00 | 53 | 1021.4 |
| 20260506181601 | 20 | 27 | 3.2 | 6.4 | 0.00 | 0.00 | 0.00 | 53 | 1021.5 |
| 20260506180600 | 21 | 91 | 1.6 | 3.2 | 0.00 | 0.00 | 0.00 | 51 | 1021.7 |
| 20260506175620 | 20 | 54 | 3.2 | 4.8 | 0.00 | 0.00 | 0.00 | 53 | 1021.6 |
| 20260506174619 | 19 | 3 | 1.6 | 4.8 | 0.00 | 0.00 | 0.00 | 54 | 1021.6 |
| 20260506173558 | 19 | 320 | 6.4 | 9.7 | 0.00 | 0.00 | 0.00 | 55 | 1021.6 |
| 20260506172558 | 19 | 337 | 3.2 | 8.0 | 0.00 | 0.00 | 0.00 | 54 | 1021.6 |
| 20260506171558 | 19 | 43 | 1.6 | 3.2 | 0.00 | 0.00 | 0.00 | 53 | 1021.7 |
| 20260506170637 | 18 | 15 | 1.6 | 6.4 | 0.00 | 0.00 | 0.00 | 56 | 1021.7 |
| 20260506165556 | 18 | 291 | 1.6 | 4.8 | 0.00 | 0.00 | 0.00 | 55 | 1021.7 |
| 20260506164556 | 18 | 289 | 1.6 | 4.8 | 0.00 | 0.00 | 0.00 | 56 | 1021.6 |
| 20260506163555 | 17 | 172 | 0.0 | 3.2 | 0.00 | 0.00 | 0.00 | 56 | 1021.6 |
| 20260506162555 | 17 | 162 | 0.0 | 3.2 | 0.00 | 0.00 | 0.00 | 58 | 1021.7 |
| 20260506161554 | 17 | 54 | 1.6 | 6.4 | 0.00 | 0.00 | 0.00 | 59 | 1021.7 |
| 20260506160553 | 16 | 126 | 1.6 | 3.2 | 0.00 | 0.00 | 0.00 | 65 | 1021.6 |
| 20260506155733 | 16 | 95 | 3.2 | 6.4 | 0.00 | 0.00 | 0.00 | 69 | 1021.7 |
| 20260506154553 | 16 | 64 | 3.2 | 6.4 | 0.00 | 0.00 | 0.00 | 70 | 1021.7 |
| 20260506153552 | 15 | 63 | 4.8 | 6.4 | 0.00 | 0.00 | 0.00 | 72 | 1021.6 |
| 20260506152551 | 15 | 60 | 3.2 | 6.4 | 0.00 | 0.00 | 0.00 | 73 | 1021.7 |
| 20260506151551 | 15 | 87 | 1.6 | 8.0 | 0.00 | 0.00 | 0.00 | 74 | 1021.7 |
| 20260506150550 | 13 | 83 | 4.8 | 8.0 | 0.00 | 0.00 | 0.00 | 77 | 1021.8 |
| 20260506145609 | 13 | 80 | 4.8 | 8.0 | 0.00 | 0.00 | 0.00 | 78 | 1021.7 |
| 20260506144549 | 13 | 103 | 3.2 | 8.0 | 0.00 | 0.00 | 0.00 | 79 | 1021.7 |
| 20260506143550 | 12 | 51 | 4.8 | 6.4 | 0.00 | 0.00 | 0.00 | 81 | 1021.7 |
| 20260506142547 | 11 | 74 | 1.6 | 4.8 | 0.00 | 0.00 | 0.00 | 86 | 1021.6 |
| 20260506141607 | 9 | 73 | 3.2 | 6.4 | 0.00 | 0.00 | 0.00 | 94 | 1021.6 |
| 20260506140547 | 8 | 80 | 3.2 | 4.8 | 0.00 | 0.00 | 0.00 | 95 | 1021.6 |
| 20260506135545 | 8 | 86 | 1.6 | 3.2 | 0.00 | 0.00 | 0.00 | 96 | 1021.6 |
| 20260506134545 | 7 | 43 | 3.2 | 6.4 | 0.00 | 0.00 | 0.00 | 97 | 1021.6 |
| 20260506133545 | 7 | 57 | 3.2 | 6.4 | 0.00 | 0.00 | 0.00 | 97 | 1021.6 |
| 20260506132545 | 7 | 42 | 1.6 | 4.8 | 0.00 | 0.00 | 0.00 | 97 | 1021.5 |
| 20260506131543 | 7 | 121 | 3.2 | 4.8 | 0.00 | 0.00 | 0.00 | 97 | 1021.4 |
| 20260506130602 | 7 | 81 | 3.2 | 4.8 | 0.00 | 0.00 | 0.00 | 97 | 1021.3 |
| 20260506125602 | 7 | 67 | 3.2 | 6.4 | 0.00 | 0.00 | 0.00 | 96 | 1021.1 |
| 20260506124541 | 7 | 133 | 3.2 | 6.4 | 0.00 | 0.00 | 0.00 | 97 | 1021.0 |
| 20260506123621 | 7 | 91 | 1.6 | 6.4 | 0.00 | 0.00 | 0.00 | 97 | 1020.9 |
| 20260506122540 | 7 | 113 | 1.6 | 3.2 | 0.00 | 0.00 | 0.00 | 96 | 1020.9 |
| 20260506121539 | 7 | 92 | 3.2 | 4.8 | 0.00 | 0.00 | 0.00 | 96 | 1020.9 |
| 20260506120539 | 7 | 83 | 3.2 | 4.8 | 0.00 | 0.00 | 0.00 | 96 | 1020.9 |
| 20260506115538 | 7 | 104 | 3.2 | 4.8 | 0.00 | 0.00 | 0.00 | 96 | 1020.8 |
| 20260506114539 | 7 | 43 | 0.0 | 4.8 | 0.00 | 0.00 | 0.00 | 96 | 1020.9 |
| 20260506113536 | 7 | 80 | 0.0 | 3.2 | 0.00 | 0.00 | 0.00 | 96 | 1020.8 |
| 20260506112536 | 7 | 104 | 0.0 | 3.2 | 0.00 | 0.00 | 0.00 | 96 | 1020.7 |
| 20260506111535 | 7 | 72 | 1.6 | 1.6 | 0.00 | 0.00 | 0.00 | 96 | 1020.7 |
| 20260506110535 | 7 | 109 | 0.0 | 1.6 | 0.00 | 0.00 | 0.00 | 96 | 1020.6 |
| 20260506105534 | 7 | 100 | 1.6 | 1.6 | 0.00 | 0.00 | 0.00 | 96 | 1020.7 |
| 20260506104553 | 7 | 74 | 0.0 | 1.6 | 0.00 | 0.00 | 0.00 | 95 | 1020.6 |
| 20260506103553 | 7 | 0.0 | 1.6 | 0.00 | 0.00 | 0.00 | 95 | 1020.7 | |
| 20260506102532 | 7 | 98 | 0.0 | 1.6 | 0.00 | 0.00 | 0.00 | 95 | 1020.7 |
| 20260506101552 | 8 | 111 | 0.0 | 1.6 | 0.00 | 0.00 | 0.00 | 95 | 1020.9 |
| 20260506100531 | 8 | 117 | 1.6 | 3.2 | 0.00 | 0.00 | 0.00 | 96 | 1020.9 |
| 20260506095531 | 8 | 0.0 | 0.0 | 0.00 | 0.00 | 0.00 | 95 | 1020.8 | |
| 20260506094530 | 8 | 0.0 | 3.2 | 0.00 | 0.00 | 0.00 | 95 | 1020.9 | |
| 20260506093529 | 8 | 0.0 | 1.6 | 0.00 | 0.00 | 0.00 | 95 | 1020.9 | |
| 20260506092529 | 8 | 80 | 0.0 | 1.6 | 0.00 | 0.00 | 0.00 | 95 | 1020.9 |
| 20260506091528 | 8 | 79 | 0.0 | 1.6 | 0.00 | 0.00 | 0.00 | 94 | 1021.0 |
| 20260506090528 | 8 | 101 | 1.6 | 3.2 | 0.00 | 0.00 | 0.00 | 94 | 1021.0 |
| 20260506085527 | 8 | 0.0 | 1.6 | 0.00 | 0.00 | 0.00 | 94 | 1021.0 | |
| 20260506084526 | 8 | 71 | 0.0 | 1.6 | 0.00 | 0.00 | 0.00 | 93 | 1021.1 |
| 20260506083526 | 8 | 83 | 0.0 | 1.6 | 0.00 | 0.00 | 0.00 | 93 | 1021.2 |
| 20260506082525 | 9 | 0.0 | 1.6 | 0.00 | 0.00 | 0.00 | 93 | 1021.2 | |
| 20260506081524 | 9 | 62 | 0.0 | 1.6 | 0.00 | 0.00 | 0.00 | 93 | 1021.1 |
| 20260506080524 | 9 | 0.0 | 1.6 | 0.00 | 0.00 | 0.00 | 93 | 1021.1 | |
| 20260506073522 | 10 | 65 | 0.0 | 1.6 | 0.00 | 0.00 | 0.00 | 91 | 1021.2 |
| 20260506072522 | 10 | 100 | 1.6 | 1.6 | 0.00 | 0.00 | 0.00 | 91 | 1021.3 |
| 20260506071521 | 10 | 95 | 0.0 | 3.2 | 0.00 | 0.00 | 0.00 | 89 | 1021.1 |
| 20260506070520 | 10 | 74 | 0.0 | 3.2 | 0.00 | 0.00 | 0.00 | 89 | 1020.9 |
| 20260506061517 | 11 | 69 | 1.6 | 3.2 | 0.00 | 0.00 | 0.00 | 87 | 1020.5 |
| 20260506060537 | 11 | 61 | 0.0 | 3.2 | 0.00 | 0.00 | 0.00 | 86 | 1020.5 |